Location: Unspecified
(0.0000°N, 0.0000°E)
Time: 07:40:27
(UTC+00:00)

LES 2 - Pass Details

Date: 17 October 2025
Orbit: 2783 x 14792 km, 32.1° (Epoch: 30 October)

Event Time Altitude Azimuth Distance (km) Brightness Sun altitude
Rises 20:56:14 0° 303° (WNW) 9,861 ? -46.9°
Reaches altitude 10° 21:03:33 10° 302° (WNW) 7,715 ? -48.6°
Enters shadow 21:20:25 70° 286° (WNW) 3,095 ? -52.7°
